Regional Weather Roundup
Issued by NWS

Home | Current Version | Previous Version | Graphics & Text | Print | Product List | Glossary On
Versions: 1 2 3 4 5 6 7 8 9 10 11 12 13 14 15 16 17 18 19 20 21 22 23 24 25 26 27 28 29 30 31 32 33 34 35 36 37 38 39 40 41 42 43 44 45 46 47 48 49 50
000
ASUS43 KFSD 271002
RWRSD

WEATHER ROUNDUP FOR SOUTH DAKOTA
NATIONAL WEATHER SERVICE SIOUX FALLS SD
500 AM CDT THU AUG 27 2015

NOTE: "FAIR" INDICATES FEW OR NO CLOUDS BELOW 12,000 FEET WITH NO
SIGNIFICANT WEATHER AND/OR OBSTRUCTIONS TO VISIBILITY.


SDZ001>005-009-010-012>017-271100-
NORTHWEST AND NORTH CENTRAL SOUTH DAKOTA

CITY           SKY/WX    TMP DP  RH WIND       PRES   REMARKS
BUFFALO          N/A     64  61  90 SE7       29.94R
MOBRIDGE       CLOUDY    68  68 100 E13       29.95F
$$

SDZ012>016-024>037-041>051-057-063-072>074-271100-
SOUTHWEST AND SOUTH CENTRAL SOUTH DAKOTA

CITY           SKY/WX    TMP DP  RH WIND       PRES   REMARKS
RAPID CTY ARPT CLOUDY    64  58  80 SW15      29.99F
PIERRE         CLOUDY    67  62  84 E16       29.89F
CUSTER         CLOUDY    58  54  86 CALM      30.15S
ELLSWORTH AFB  CLOUDY    65  59  81 SW12      29.98
PHILIP         CLOUDY    68  59  73 E14G23    29.88F
PINE RIDGE     CLOUDY    65  55  70 E9        29.99F
WINNER         FAIR      69  62  78 SE13      29.95F
$$

SDZ004>011-016>023-039-040-271100-
NORTHEAST SOUTH DAKOTA

CITY           SKY/WX    TMP DP  RH WIND       PRES   REMARKS
ABERDEEN       CLOUDY    64  61  90 NE5       30.02R
WATERTOWN      CLOUDY    62  59  90 S8        30.02F
BROOKINGS      CLOUDY    61  57  88 SE8       30.05F
$$

SDZ017-020-022-023-036>040-048>070-271100-
SOUTHEAST SOUTH DAKOTA

CITY           SKY/WX    TMP DP  RH WIND       PRES   REMARKS
SIOUX FALLS    CLOUDY    64  59  83 SE8       30.03S
HURON          LGT RAIN  65  63  93 S9        30.03R
CHAMBERLAIN    LGT RAIN  69  63  83 NE12      29.94F
MITCHELL       LGT RAIN  66  63  90 W6        30.04R
YANKTON        CLOUDY    64  61  88 E6        30.00S
$$

ABBREVIATIONS USED IN REMARKS
   TC - TEMPERATURE IN CELSIUS
  WCI - WIND CHILL INDEX
   HX - HEAT INDEX
  VSB - VISIBILITY




USA.gov is the U.S. government's official web portal to all federal, state and local government web resources and services.